| time (UTC) | temp F | wind direction | speed knots | gust knots | rain 1hr in | rain 24hr in | rain mn in | humidity % | barometer mb |
| 20260502200035 | 37 | 63 | 0.0 | 0.0 | 0.00 | 0.00 | 0.00 | 94 | 1023.1 |
| 20260502193046 | 38 | 63 | 0.0 | 0.0 | 0.00 | 0.00 | 0.00 | 93 | 1023.1 |
| 20260502191540 | 39 | 63 | 0.9 | 1.7 | 0.00 | 0.00 | 0.00 | 92 | 1023.0 |
| 20260502184553 | 42 | 209 | 0.0 | 1.7 | 0.00 | 0.00 | 0.00 | 89 | 1022.9 |
| 20260502181544 | 45 | 241 | 0.0 | 0.9 | 0.00 | 0.00 | 0.00 | 83 | 1022.9 |
| 20260502161539 | 52 | 158 | 3.5 | 7.8 | 0.00 | 0.00 | 0.00 | 68 | 1023.2 |
| 20260502123040 | 53 | 192 | 2.6 | 7.8 | 0.00 | 0.00 | 0.00 | 70 | 1025.2 |
| 20260502121527 | 52 | 300 | 6.1 | 11.3 | 0.00 | 0.00 | 0.00 | 72 | 1025.4 |
| 20260502114617 | 51 | 331 | 6.1 | 10.4 | 0.00 | 0.00 | 0.00 | 72 | 1025.5 |
| 20260502113020 | 51 | 260 | 7.0 | 12.2 | 0.00 | 0.00 | 0.00 | 72 | 1025.7 |
| 20260502110034 | 51 | 247 | 2.6 | 9.6 | 0.00 | 0.00 | 0.00 | 73 | 1026.2 |
| 20260502103045 | 50 | 302 | 5.2 | 10.4 | 0.00 | 0.00 | 0.00 | 72 | 1026.4 |
| 20260502101548 | 49 | 274 | 3.5 | 9.6 | 0.00 | 0.00 | 0.00 | 72 | 1026.6 |
| 20260502070048 | 44 | 304 | 2.6 | 7.8 | 0.00 | 0.01 | 0.00 | 77 | 1027.5 |
| 20260502063041 | 43 | 10 | 0.9 | 3.5 | 0.00 | 0.02 | 0.00 | 80 | 1027.4 |
| 20260502060037 | 36 | 108 | 0.0 | 1.7 | 0.00 | 0.02 | 0.00 | 96 | 1027.5 |
| 20260502053029 | 30 | 129 | 0.0 | 0.0 | 0.00 | 0.02 | 0.00 | 96 | 1027.4 |
| 20260502050042 | 28 | 129 | 0.0 | 0.0 | 0.00 | 0.02 | 0.00 | 96 | 1027.3 |
| 20260502043028 | 28 | 129 | 0.0 | 0.0 | 0.00 | 0.02 | 0.00 | 96 | 1027.3 |
| 20260502041516 | 27 | 129 | 0.0 | 0.0 | 0.00 | 0.02 | 0.00 | 96 | 1027.2 |
| 20260502034533 | 28 | 129 | 0.0 | 0.0 | 0.00 | 0.02 | 0.00 | 96 | 1027.3 |
| 20260502031520 | 28 | 129 | 0.0 | 0.0 | 0.00 | 0.02 | 0.00 | 96 | 1027.3 |
| 20260502024541 | 29 | 129 | 0.0 | 0.0 | 0.00 | 0.02 | 0.00 | 96 | 1027.4 |
| 20260502023035 | 29 | 129 | 0.0 | 0.0 | 0.00 | 0.02 | 0.00 | 96 | 1027.4 |
| 20260502020043 | 30 | 129 | 0.0 | 0.0 | 0.00 | 0.02 | 0.00 | 96 | 1027.6 |
| 20260502013054 | 32 | 129 | 0.0 | 0.0 | 0.00 | 0.02 | 0.00 | 95 | 1027.6 |
| 20260502011537 | 32 | 129 | 0.0 | 0.0 | 0.00 | 0.02 | 0.00 | 95 | 1027.6 |
| 20260502010031 | 32 | 129 | 0.0 | 0.0 | 0.00 | 0.02 | 0.00 | 94 | 1027.6 |
| 20260502004516 | 33 | 129 | 0.0 | 0.0 | 0.00 | 0.02 | 0.00 | 94 | 1027.6 |
| 20260502001530 | 34 | 151 | 1.7 | 3.5 | 0.00 | 0.02 | 0.00 | 93 | 1027.9 |
| 20260502000025 | 35 | 145 | 1.7 | 2.6 | 0.00 | 0.02 | 0.00 | 92 | 1028.1 |
| 20260501233029 | 36 | 129 | 1.7 | 2.6 | 0.00 | 0.02 | 0.00 | 92 | 1028.1 |
| 20260501230040 | 35 | 149 | 1.7 | 3.5 | 0.00 | 0.02 | 0.00 | 95 | 1028.0 |
| 20260501223022 | 32 | 94 | 0.0 | 1.7 | 0.00 | 0.02 | 0.00 | 96 | 1028.0 |
| 20260501220135 | 32 | 94 | 0.0 | 0.0 | 0.00 | 0.02 | 0.00 | 96 | 1027.7 |
| 20260501214534 | 32 | 94 | 0.0 | 0.0 | 0.00 | 0.02 | 0.02 | 96 | 1027.7 |
| 20260501211528 | 32 | 94 | 0.0 | 0.0 | 0.00 | 0.02 | 0.02 | 95 | 1027.6 |
| 20260501204554 | 33 | 94 | 0.0 | 0.0 | 0.00 | 0.02 | 0.02 | 95 | 1027.5 |
| 20260501203045 | 33 | 94 | 0.0 | 1.7 | 0.00 | 0.02 | 0.02 | 94 | 1027.5 |
| 20260501201543 | 33 | 83 | 0.0 | 1.7 | 0.00 | 0.02 | 0.02 | 95 | 1027.6 |